| time (UTC) | temp C | wind direction | speed KPH | gust KPH | rain 1hr cm | rain 24hr cm | rain mn cm | humidity % | barometer mb |
| 20260508102925 | 10 | 45 | 1.6 | 0.0 | 0.00 | 0.00 | 0.00 | 10 | 1028.0 |
| 20260508102813 | 10 | 90 | 1.6 | 0.0 | 0.00 | 0.00 | 0.00 | 10 | 1028.0 |
| 20260508102704 | 10 | 315 | 3.2 | 0.0 | 0.00 | 0.00 | 0.00 | 10 | 1027.9 |
| 20260508102444 | 10 | 90 | 1.6 | 0.0 | 0.00 | 0.00 | 0.00 | 10 | 1027.9 |
| 20260508102330 | 10 | 90 | 1.6 | 0.0 | 0.00 | 0.00 | 0.00 | 10 | 1303.4 |
| 20260508102205 | 11 | 90 | 3.2 | 0.0 | 0.00 | 0.00 | 0.00 | 10 | 1027.9 |
| 20260508101831 | 10 | 45 | 3.2 | 0.0 | 0.00 | 0.00 | 0.00 | 10 | 1027.8 |
| 20260508101722 | 10 | 0 | 1.6 | 0.0 | 0.00 | 0.00 | 0.00 | 10 | 1027.8 |
| 20260508101614 | 10 | 45 | 3.2 | 0.0 | 0.00 | 0.00 | 0.00 | 10 | 1027.8 |
| 20260508101356 | 10 | 0 | 3.2 | 0.0 | 0.00 | 0.00 | 0.00 | 10 | 1027.8 |
| 20260508101248 | 10 | 45 | 1.6 | 0.0 | 0.00 | 0.00 | 0.00 | 10 | 1027.9 |
| 20260508101139 | 10 | 45 | 3.2 | 0.0 | 0.00 | 0.00 | 0.00 | 10 | 1027.9 |
| 20260508101030 | 10 | 45 | 3.2 | 0.0 | 0.00 | 0.00 | 0.00 | 10 | 1027.9 |
| 20260508100921 | 10 | 45 | 3.2 | 0.0 | 0.00 | 0.00 | 0.00 | 10 | 1027.9 |
| 20260508100813 | 10 | 45 | 1.6 | 0.0 | 0.00 | 0.00 | 0.00 | 10 | 1027.9 |
| 20260508100555 | 10 | 90 | 3.2 | 0.0 | 0.00 | 0.00 | 0.00 | 10 | 1027.9 |
| 20260508100447 | 10 | 45 | 3.2 | 0.0 | 0.00 | 0.00 | 0.00 | 10 | 1028.0 |
| 20260508100338 | 10 | 45 | 1.6 | 0.0 | 0.00 | 0.00 | 0.00 | 10 | 1028.0 |
| 20260508100229 | 10 | 45 | 1.6 | 0.0 | 0.00 | 0.00 | 0.00 | 10 | 1028.0 |
| 20260508100120 | 10 | 0 | 3.2 | 0.0 | 0.00 | 0.00 | 0.00 | 10 | 1028.0 |
| 20260508100012 | 10 | 0 | 3.2 | 0.0 | 0.00 | 0.00 | 0.00 | 10 | 1028.0 |
| 20260508095903 | 10 | 90 | 1.6 | 0.0 | 0.00 | 0.00 | 0.00 | 10 | 1028.0 |
| 20260508095754 | 10 | 45 | 1.6 | 0.0 | 0.00 | 0.00 | 0.00 | 10 | 1028.0 |
| 20260508095645 | 10 | 90 | 1.6 | 0.0 | 0.00 | 0.00 | 0.00 | 10 | 1028.0 |
| 20260508095537 | 10 | 45 | 4.8 | 0.0 | 0.00 | 0.00 | 0.00 | 10 | 1028.0 |
| 20260508095102 | 10 | 45 | 3.2 | 0.0 | 0.00 | 0.00 | 0.00 | 10 | 1028.1 |
| 20260508094953 | 10 | 45 | 3.2 | 0.0 | 0.00 | 0.00 | 0.00 | 10 | 1028.2 |
| 20260508094844 | 10 | 45 | 3.2 | 0.0 | 0.00 | 0.00 | 0.00 | 10 | 1028.2 |
| 20260508094736 | 10 | 45 | 1.6 | 0.0 | 0.00 | 0.00 | 0.00 | 10 | 1028.2 |
| 20260508094627 | 10 | 0 | 3.2 | 0.0 | 0.00 | 0.00 | 0.00 | 10 | 1028.2 |
| 20260508094301 | 10 | 135 | 1.6 | 0.0 | 0.00 | 0.00 | 0.00 | 10 | 1028.2 |
| 20260508093935 | 10 | 0 | 1.6 | 0.0 | 0.00 | 0.00 | 0.00 | 10 | 1028.2 |
| 20260508093826 | 10 | 45 | 4.8 | 0.0 | 0.00 | 0.00 | 0.00 | 10 | 1028.2 |
| 20260508093717 | 10 | 90 | 3.2 | 0.0 | 0.00 | 0.00 | 0.00 | 10 | 1028.2 |
| 20260508093500 | 10 | 90 | 1.6 | 0.0 | 0.00 | 0.00 | 0.00 | 10 | 1028.2 |
| 20260508093351 | 11 | 45 | 1.6 | 0.0 | 0.00 | 0.00 | 0.00 | 10 | 1028.2 |
| 20260508093242 | 11 | 90 | 1.6 | 0.0 | 0.00 | 0.00 | 0.00 | 10 | 1028.1 |
| 20260508093134 | 10 | 135 | 1.6 | 0.0 | 0.00 | 0.00 | 0.00 | 10 | 1028.1 |
| 20260508093025 | 10 | 90 | 3.2 | 0.0 | 0.00 | 0.00 | 0.00 | 10 | 1028.2 |
| 20260508092807 | 10 | 90 | 3.2 | 0.0 | 0.00 | 0.00 | 0.00 | 10 | 1028.2 |
| 20260508092441 | 11 | 45 | 1.6 | 0.0 | 0.00 | 0.00 | 0.00 | 10 | 1028.0 |
| 20260508092333 | 10 | 90 | 3.2 | 0.0 | 0.00 | 0.00 | 0.00 | 10 | 1028.1 |
| 20260508092224 | 10 | 45 | 1.6 | 0.0 | 0.00 | 0.00 | 0.00 | 10 | 1028.1 |
| 20260508092115 | 10 | 315 | 3.2 | 0.0 | 0.00 | 0.00 | 0.00 | 10 | 1028.0 |
| 20260508091858 | 11 | 45 | 1.6 | 0.0 | 0.00 | 0.00 | 0.00 | 10 | 1027.9 |
| 20260508091640 | 10 | 45 | 1.6 | 0.0 | 0.00 | 0.00 | 0.00 | 10 | 1027.9 |
| 20260508091532 | 10 | 45 | 4.8 | 0.0 | 0.00 | 0.00 | 0.00 | 10 | 1027.9 |
| 20260508091423 | 10 | 90 | 3.2 | 0.0 | 0.00 | 0.00 | 0.00 | 10 | 1027.9 |
| 20260508091206 | 11 | 270 | 1.6 | 0.0 | 0.00 | 0.00 | 0.00 | 10 | 1027.8 |
| 20260508090948 | 10 | 45 | 1.6 | 0.0 | 0.00 | 0.00 | 0.00 | 10 | 1027.8 |
| 20260508090622 | 11 | 45 | 1.6 | 0.0 | 0.00 | 0.00 | 0.00 | 10 | 1027.5 |
| 20260508090405 | 11 | 90 | 1.6 | 0.0 | 0.00 | 0.00 | 0.00 | 10 | 1027.3 |
| 20260508090256 | 11 | 45 | 1.6 | 0.0 | 0.00 | 0.00 | 0.00 | 10 | 1027.3 |
| 20260508090147 | 11 | 0 | 1.6 | 0.0 | 0.00 | 0.00 | 0.00 | 10 | 1027.2 |
| 20260508090038 | 11 | 45 | 1.6 | 0.0 | 0.00 | 0.00 | 0.00 | 10 | 1027.1 |
| 20260508085930 | 11 | 90 | 1.6 | 0.0 | 0.00 | 0.00 | 0.00 | 10 | 1027.0 |
| 20260508085821 | 11 | 90 | 1.6 | 0.0 | 0.00 | 0.00 | 0.00 | 10 | 1027.1 |
| 20260508085712 | 11 | 90 | 4.8 | 0.0 | 0.00 | 0.00 | 0.00 | 10 | 1027.1 |
| 20260508085454 | 11 | 90 | 1.6 | 0.0 | 0.00 | 0.00 | 0.00 | 10 | 1026.8 |
| 20260508085237 | 11 | 45 | 3.2 | 0.0 | 0.00 | 0.00 | 0.00 | 10 | 1026.5 |
| 20260508085128 | 11 | 90 | 1.6 | 0.0 | 0.00 | 0.00 | 0.00 | 10 | 1026.4 |
| 20260508085019 | 12 | 0 | 1.6 | 0.0 | 0.00 | 0.00 | 0.00 | 10 | 1026.3 |
| 20260508084911 | 12 | 45 | 3.2 | 0.0 | 0.00 | 0.00 | 0.00 | 10 | 1026.1 |
| 20260508084544 | 11 | 45 | 3.2 | 0.0 | 0.00 | 0.00 | 0.00 | 10 | 1026.1 |
| 20260508084435 | 11 | 45 | 3.2 | 0.0 | 0.00 | 0.00 | 0.00 | 10 | 1026.0 |
| 20260508084327 | 11 | 45 | 3.2 | 0.0 | 0.00 | 0.00 | 0.00 | 10 | 1026.0 |
| 20260508084218 | 11 | 45 | 3.2 | 0.0 | 0.00 | 0.00 | 0.00 | 10 | 1025.9 |
| 20260508083852 | 10 | 45 | 1.6 | 0.0 | 0.00 | 0.00 | 0.00 | 10 | 1025.8 |
| 20260508083743 | 10 | 45 | 1.6 | 0.0 | 0.00 | 0.00 | 0.00 | 10 | 1025.8 |
| 20260508083634 | 10 | 90 | 1.6 | 0.0 | 0.00 | 0.00 | 0.00 | 10 | 1025.7 |
| 20260508083526 | 10 | 45 | 1.6 | 0.0 | 0.00 | 0.00 | 0.00 | 10 | 1025.6 |
| 20260508082834 | 9 | 90 | 1.6 | 0.0 | 0.00 | 0.00 | 0.00 | 10 | 1025.5 |
| 20260508082725 | 8 | 135 | 3.2 | 0.0 | 0.00 | 0.00 | 0.00 | 10 | 1025.5 |
| 20260508082616 | 8 | 90 | 1.6 | 0.0 | 0.00 | 0.00 | 0.00 | 10 | 1025.5 |
| 20260508082507 | 8 | 90 | 1.6 | 0.0 | 0.00 | 0.00 | 0.00 | 10 | 1025.5 |
| 20260508082359 | 8 | 135 | 1.6 | 0.0 | 0.00 | 0.00 | 0.00 | 10 | 1025.5 |
| 20260508082250 | 8 | 90 | 1.6 | 0.0 | 0.00 | 0.00 | 0.00 | 10 | 1025.4 |
| 20260508082141 | 8 | 90 | 1.6 | 0.0 | 0.00 | 0.00 | 0.00 | 10 | 1025.4 |
| 20260508081558 | 8 | 45 | 1.6 | 0.0 | 0.00 | 0.00 | 0.00 | 10 | 1025.4 |
| 20260508081449 | 8 | 0 | 1.6 | 0.0 | 0.00 | 0.00 | 0.00 | 10 | 1025.4 |
| 20260508081123 | 8 | 0 | 1.6 | 0.0 | 0.00 | 0.00 | 0.00 | 10 | 1025.4 |
| 20260508081014 | 8 | 315 | 1.6 | 0.0 | 0.00 | 0.00 | 0.00 | 10 | 1025.3 |
| 20260508080430 | 8 | 90 | 1.6 | 0.0 | 0.00 | 0.00 | 0.00 | 10 | 1025.3 |
| 20260508080213 | 8 | 45 | 1.6 | 0.0 | 0.00 | 0.00 | 0.00 | 10 | 1025.2 |
| 20260508075738 | 8 | 90 | 1.6 | 0.0 | 0.00 | 0.00 | 0.00 | 10 | 1025.2 |
| 20260508075629 | 8 | 45 | 1.6 | 0.0 | 0.00 | 0.00 | 0.00 | 10 | 1025.1 |
| 20260508075520 | 8 | 45 | 1.6 | 0.0 | 0.00 | 0.00 | 0.00 | 10 | 1025.1 |
| 20260508074937 | 8 | 90 | 1.6 | 0.0 | 0.00 | 0.00 | 0.00 | 10 | 1025.0 |
| 20260508074828 | 8 | 45 | 1.6 | 0.0 | 0.00 | 0.00 | 0.00 | 10 | 1025.0 |
| 20260508074244 | 8 | 315 | 1.6 | 0.0 | 0.00 | 0.00 | 0.00 | 10 | 1024.9 |
| 20260508074136 | 8 | 135 | 1.6 | 0.0 | 0.00 | 0.00 | 0.00 | 10 | 1024.9 |
| 20260508074027 | 8 | 90 | 1.6 | 0.0 | 0.00 | 0.00 | 0.00 | 10 | 1024.9 |
| 20260508073552 | 8 | 90 | 1.6 | 0.0 | 0.00 | 0.00 | 0.00 | 10 | 1024.8 |
| 20260508073443 | 7 | 90 | 1.6 | 0.0 | 0.00 | 0.00 | 0.00 | 10 | 1024.8 |
| 20260508073335 | 7 | 135 | 1.6 | 0.0 | 0.00 | 0.00 | 0.00 | 10 | 1024.8 |
| 20260508073226 | 7 | 90 | 1.6 | 0.0 | 0.00 | 0.00 | 0.00 | 10 | 1024.8 |
| 20260508073008 | 7 | 45 | 1.6 | 0.0 | 0.00 | 0.00 | 0.00 | 10 | 1024.7 |
| 20260508072900 | 7 | 45 | 1.6 | 0.0 | 0.00 | 0.00 | 0.00 | 10 | 1024.7 |
| 20260508072751 | 7 | 45 | 1.6 | 0.0 | 0.00 | 0.00 | 0.00 | 10 | 1024.7 |
| 20260508072642 | 7 | 180 | 1.6 | 0.0 | 0.00 | 0.00 | 0.00 | 10 | 1024.7 |
| 20260508072534 | 7 | 90 | 3.2 | 0.0 | 0.00 | 0.00 | 0.00 | 10 | 1024.7 |
| 20260508072425 | 7 | 45 | 1.6 | 0.0 | 0.00 | 0.00 | 0.00 | 10 | 1024.6 |
| 20260508071950 | 7 | 45 | 1.6 | 0.0 | 0.00 | 0.00 | 0.00 | 10 | 1024.5 |
| 20260508071841 | 7 | 45 | 1.6 | 0.0 | 0.00 | 0.00 | 0.00 | 10 | 1024.5 |
| 20260508071733 | 7 | 90 | 1.6 | 0.0 | 0.00 | 0.00 | 0.00 | 10 | 1024.5 |
| 20260508071515 | 7 | 0 | 1.6 | 0.0 | 0.00 | 0.00 | 0.00 | 10 | 1024.4 |
| 20260508071258 | 7 | 45 | 1.6 | 0.0 | 0.00 | 0.00 | 0.00 | 10 | 1024.4 |
| 20260508070932 | 7 | 0 | 1.6 | 0.0 | 0.00 | 0.00 | 0.00 | 10 | 1024.4 |
| 20260508070823 | 7 | 45 | 1.6 | 0.0 | 0.00 | 0.00 | 0.00 | 10 | 1024.5 |
| 20260508070131 | 7 | 0 | 1.6 | 0.0 | 0.00 | 0.00 | 0.00 | 10 | 1024.5 |
| 20260508070022 | 7 | 45 | 1.6 | 0.0 | 0.00 | 0.00 | 0.00 | 10 | 1024.4 |
| 20260508065804 | 7 | 45 | 1.6 | 0.0 | 0.00 | 0.00 | 0.00 | 10 | 1024.4 |
| 20260508065656 | 7 | 0 | 3.2 | 0.0 | 0.00 | 0.00 | 0.00 | 10 | 1024.4 |
| 20260508065547 | 7 | 45 | 1.6 | 0.0 | 0.00 | 0.00 | 0.00 | 10 | 1024.5 |
| 20260508065330 | 7 | 315 | 1.6 | 0.0 | 0.00 | 0.00 | 0.00 | 10 | 1024.4 |
| 20260508065221 | 7 | 45 | 1.6 | 0.0 | 0.00 | 0.00 | 0.00 | 10 | 1024.4 |
| 20260508065003 | 7 | 90 | 1.6 | 0.0 | 0.00 | 0.00 | 0.00 | 10 | 1024.4 |
| 20260508064855 | 7 | 45 | 1.6 | 0.0 | 0.00 | 0.00 | 0.00 | 10 | 1024.4 |
| 20260508064637 | 7 | 45 | 1.6 | 0.0 | 0.00 | 0.00 | 0.00 | 10 | 1024.4 |
| 20260508063945 | 7 | 135 | 1.6 | 0.0 | 0.00 | 0.00 | 0.00 | 10 | 1024.3 |
| 20260508063836 | 7 | 90 | 1.6 | 0.0 | 0.00 | 0.00 | 0.00 | 10 | 1024.3 |
| 20260508063510 | 7 | 0 | 1.6 | 0.0 | 0.00 | 0.00 | 0.00 | 10 | 1024.2 |
| 20260508063401 | 7 | 45 | 1.6 | 0.0 | 0.00 | 0.00 | 0.00 | 10 | 1024.2 |
| 20260508063253 | 7 | 0 | 1.6 | 0.0 | 0.00 | 0.00 | 0.00 | 10 | 1024.2 |
| 20260508063144 | 7 | 90 | 1.6 | 0.0 | 0.00 | 0.00 | 0.00 | 10 | 1024.2 |
| 20260508063035 | 7 | 90 | 1.6 | 0.0 | 0.00 | 0.00 | 0.00 | 10 | 1024.2 |
| 20260508062600 | 7 | 90 | 1.6 | 0.0 | 0.00 | 0.00 | 0.00 | 10 | 1024.1 |
| 20260508062452 | 7 | 90 | 1.6 | 0.0 | 0.00 | 0.00 | 0.00 | 10 | 1024.1 |
| 20260508062234 | 7 | 45 | 1.6 | 0.0 | 0.00 | 0.00 | 0.00 | 10 | 1024.1 |
| 20260508062125 | 7 | 90 | 1.6 | 0.0 | 0.00 | 0.00 | 0.00 | 10 | 1024.1 |
| 20260508061908 | 7 | 45 | 1.6 | 0.0 | 0.00 | 0.00 | 0.00 | 10 | 1024.0 |
| 20260508061542 | 7 | 0 | 1.6 | 0.0 | 0.00 | 0.00 | 0.00 | 10 | 1024.0 |
| 20260508060958 | 7 | 0 | 1.6 | 0.0 | 0.00 | 0.00 | 0.00 | 10 | 1024.0 |
| 20260508060741 | 7 | 0 | 1.6 | 0.0 | 0.00 | 0.00 | 0.00 | 10 | 1024.0 |
| 20260508060523 | 7 | 90 | 1.6 | 0.0 | 0.00 | 0.00 | 0.00 | 10 | 1024.0 |
| 20260508060415 | 7 | 0 | 1.6 | 0.0 | 0.00 | 0.00 | 0.00 | 10 | 1024.0 |
| 20260508060049 | 7 | 45 | 1.6 | 0.0 | 0.00 | 0.00 | 0.00 | 10 | 1023.9 |
| 20260508055831 | 7 | 0 | 1.6 | 0.0 | 0.00 | 0.00 | 0.00 | 10 | 1024.0 |
| 20260508055722 | 7 | 90 | 3.2 | 0.0 | 0.00 | 0.00 | 0.00 | 10 | 1024.0 |
| 20260508055614 | 7 | 90 | 3.2 | 0.0 | 0.00 | 0.00 | 0.00 | 10 | 1023.9 |
| 20260508055505 | 7 | 45 | 1.6 | 0.0 | 0.00 | 0.00 | 0.00 | 10 | 1023.9 |
| 20260508055139 | 7 | 45 | 1.6 | 0.0 | 0.00 | 0.00 | 0.00 | 10 | 1023.9 |
| 20260508055030 | 7 | 45 | 1.6 | 0.0 | 0.00 | 0.00 | 0.00 | 10 | 1023.8 |
| 20260508054704 | 7 | 0 | 1.6 | 0.0 | 0.00 | 0.00 | 0.00 | 10 | 1023.8 |
| 20260508054447 | 7 | 45 | 1.6 | 0.0 | 0.00 | 0.00 | 0.00 | 10 | 1023.8 |
| 20260508054012 | 7 | 0 | 1.6 | 0.0 | 0.00 | 0.00 | 0.00 | 10 | 1023.7 |
| 20260508053428 | 7 | 45 | 1.6 | 0.0 | 0.00 | 0.00 | 0.00 | 10 | 1023.6 |
| 20260508052954 | 7 | 180 | 1.6 | 0.0 | 0.00 | 0.00 | 0.00 | 10 | 1023.5 |
| 20260508052736 | 7 | 135 | 1.6 | 0.0 | 0.00 | 0.00 | 0.00 | 10 | 1023.6 |
| 20260508052627 | 7 | 90 | 1.6 | 0.0 | 0.00 | 0.00 | 0.00 | 10 | 1023.6 |
| 20260508052519 | 7 | 90 | 1.6 | 0.0 | 0.00 | 0.00 | 0.00 | 10 | 1023.5 |
| 20260508052153 | 7 | 90 | 1.6 | 0.0 | 0.00 | 0.00 | 0.00 | 10 | 1023.5 |
| 20260508051609 | 7 | 90 | 1.6 | 0.0 | 0.00 | 0.00 | 0.00 | 10 | 1023.5 |
| 20260508051500 | 7 | 45 | 1.6 | 0.0 | 0.00 | 0.00 | 0.00 | 10 | 1023.5 |
| 20260508051352 | 7 | 45 | 1.6 | 0.0 | 0.00 | 0.00 | 0.00 | 10 | 1023.5 |
| 20260508050917 | 7 | 45 | 1.6 | 0.0 | 0.00 | 0.00 | 0.00 | 10 | 1023.4 |
| 20260508050808 | 7 | 45 | 1.6 | 0.0 | 0.00 | 0.00 | 0.00 | 10 | 1023.4 |
| 20260508050700 | 7 | 45 | 1.6 | 0.0 | 0.00 | 0.00 | 0.00 | 10 | 1023.4 |
| 20260508050333 | 7 | 45 | 1.6 | 0.0 | 0.00 | 0.00 | 0.00 | 10 | 1023.4 |
| 20260508045859 | 7 | 45 | 1.6 | 0.0 | 0.00 | 0.00 | 0.00 | 10 | 1023.3 |
| 20260508045641 | 7 | 45 | 1.6 | 0.0 | 0.00 | 0.00 | 0.00 | 10 | 1023.3 |
| 20260508045424 | 6 | 45 | 1.6 | 0.0 | 0.00 | 0.00 | 0.00 | 10 | 1023.3 |
| 20260508045315 | 6 | 90 | 1.6 | 0.0 | 0.00 | 0.00 | 0.00 | 10 | 1023.3 |
| 20260508045058 | 6 | 45 | 1.6 | 0.0 | 0.00 | 0.00 | 0.00 | 10 | 1023.2 |
| 20260508044623 | 6 | 90 | 1.6 | 0.0 | 0.00 | 0.00 | 0.00 | 10 | 1023.2 |
| 20260508043713 | 6 | 45 | 1.6 | 0.0 | 0.00 | 0.00 | 0.00 | 10 | 1023.2 |
| 20260508043456 | 6 | 45 | 1.6 | 0.0 | 0.00 | 0.00 | 0.00 | 10 | 1023.2 |
| 20260508043347 | 6 | 45 | 1.6 | 0.0 | 0.00 | 0.00 | 0.00 | 10 | 1023.2 |
| 20260508043238 | 6 | 90 | 0.0 | 0.0 | 0.00 | 0.00 | 0.00 | 10 | 1023.2 |
| 20260508042912 | 6 | 45 | 1.6 | 0.0 | 0.00 | 0.00 | 0.00 | 10 | 1023.1 |
| 20260508042329 | 6 | 45 | 1.6 | 0.0 | 0.00 | 0.00 | 0.00 | 10 | 1023.1 |
| 20260508042111 | 6 | 0 | 1.6 | 0.0 | 0.00 | 0.00 | 0.00 | 10 | 1023.0 |
| 20260508042002 | 6 | 135 | 1.6 | 0.0 | 0.00 | 0.00 | 0.00 | 10 | 1023.0 |
| 20260508040944 | 6 | 90 | 1.6 | 0.0 | 0.00 | 0.00 | 0.00 | 10 | 1022.9 |
| 20260508040035 | 6 | 45 | 1.6 | 0.0 | 0.00 | 0.00 | 0.00 | 10 | 1022.9 |
| 20260508035926 | 6 | 0 | 1.6 | 0.0 | 0.00 | 0.00 | 0.00 | 10 | 1022.9 |
| 20260508035451 | 6 | 45 | 0.0 | 0.0 | 0.00 | 0.00 | 0.00 | 10 | 1022.8 |
| 20260508035016 | 6 | 45 | 1.6 | 0.0 | 0.00 | 0.00 | 0.00 | 10 | 1022.9 |
| 20260508034907 | 6 | 90 | 3.2 | 0.0 | 0.00 | 0.00 | 0.00 | 10 | 1022.8 |
| 20260508034216 | 6 | 45 | 1.6 | 0.0 | 0.00 | 0.00 | 0.00 | 10 | 1022.8 |
| 20260508033416 | 6 | 45 | 1.6 | 0.0 | 0.00 | 0.00 | 0.00 | 10 | 1022.7 |
| 20260508031600 | 6 | 90 | 0.0 | 0.0 | 0.00 | 0.00 | 0.00 | 10 | 1022.7 |
| 20260508031451 | 6 | 90 | 0.0 | 0.0 | 0.00 | 0.00 | 0.00 | 10 | 1022.6 |
| 20260508031234 | 6 | 0 | 0.0 | 0.0 | 0.00 | 0.00 | 0.00 | 10 | 1022.7 |
| 20260508030543 | 6 | 45 | 1.6 | 0.0 | 0.00 | 0.00 | 0.00 | 10 | 1022.7 |
| 20260508030435 | 6 | 135 | 0.0 | 0.0 | 0.00 | 0.00 | 0.00 | 10 | 1022.7 |
| 20260508030326 | 6 | 45 | 0.0 | 0.0 | 0.00 | 0.00 | 0.00 | 10 | 1022.6 |
| 20260508030217 | 6 | 45 | 0.0 | 0.0 | 0.00 | 0.00 | 0.00 | 10 | 1022.6 |
| 20260508030109 | 6 | 45 | 0.0 | 0.0 | 0.00 | 0.00 | 0.00 | 10 | 1022.6 |
| 20260508030001 | 6 | 45 | 0.0 | 0.0 | 0.00 | 0.00 | 0.00 | 10 | 1022.6 |
| 20260508025852 | 6 | 45 | 0.0 | 0.0 | 0.00 | 0.00 | 0.00 | 10 | 1022.6 |
| 20260508025743 | 6 | 45 | 0.0 | 0.0 | 0.00 | 0.00 | 0.00 | 10 | 1022.7 |
| 20260508025526 | 6 | 45 | 0.0 | 0.0 | 0.00 | 0.00 | 0.00 | 10 | 1022.6 |
| 20260508025418 | 6 | 45 | 0.0 | 0.0 | 0.00 | 0.00 | 0.00 | 10 | 1022.6 |
| 20260508025309 | 6 | 45 | 0.0 | 0.0 | 0.00 | 0.00 | 0.00 | 10 | 1022.6 |
| 20260508025201 | 6 | 45 | 0.0 | 0.0 | 0.00 | 0.00 | 0.00 | 10 | 1022.6 |
| 20260508025052 | 6 | 45 | 0.0 | 0.0 | 0.00 | 0.00 | 0.00 | 10 | 1022.6 |
| 20260508024943 | 6 | 45 | 0.0 | 0.0 | 0.00 | 0.00 | 0.00 | 10 | 1022.6 |
| 20260508024618 | 6 | 45 | 0.0 | 0.0 | 0.00 | 0.00 | 0.00 | 10 | 1022.6 |
| 20260508024509 | 6 | 0 | 0.0 | 0.0 | 0.00 | 0.00 | 0.00 | 10 | 1022.6 |
| 20260508024035 | 6 | 90 | 0.0 | 0.0 | 0.00 | 0.00 | 0.00 | 10 | 1022.5 |
| 20260508023927 | 6 | 90 | 0.0 | 0.0 | 0.00 | 0.00 | 0.00 | 10 | 1022.6 |
| 20260508023710 | 6 | 90 | 1.6 | 0.0 | 0.00 | 0.00 | 0.00 | 10 | 1022.5 |
| 20260508023018 | 6 | 45 | 1.6 | 0.0 | 0.00 | 0.00 | 0.00 | 10 | 1022.5 |
| 20260508022110 | 6 | 0 | 1.6 | 0.0 | 0.00 | 0.00 | 0.00 | 10 | 1022.5 |
| 20260508022002 | 6 | 45 | 0.0 | 0.0 | 0.00 | 0.00 | 0.00 | 10 | 1022.6 |
| 20260508021853 | 6 | 45 | 1.6 | 0.0 | 0.00 | 0.00 | 0.00 | 10 | 1022.5 |
| 20260508020836 | 6 | 0 | 1.6 | 0.0 | 0.00 | 0.00 | 0.00 | 10 | 1022.5 |
| 20260508020402 | 6 | 90 | 1.6 | 0.0 | 0.00 | 0.00 | 0.00 | 10 | 1022.5 |
| 20260508015927 | 6 | 90 | 1.6 | 0.0 | 0.00 | 0.00 | 0.00 | 10 | 1022.5 |
| 20260508015819 | 6 | 90 | 1.6 | 0.0 | 0.00 | 0.00 | 0.00 | 10 | 1022.4 |
| 20260508015236 | 6 | 90 | 1.6 | 0.0 | 0.00 | 0.00 | 0.00 | 10 | 1022.4 |
| 20260508015127 | 6 | 90 | 0.0 | 0.0 | 0.00 | 0.00 | 0.00 | 10 | 1022.4 |
| 20260508015019 | 6 | 45 | 0.0 | 0.0 | 0.00 | 0.00 | 0.00 | 10 | 1022.4 |
| 20260508013745 | 6 | 45 | 0.0 | 0.0 | 0.00 | 0.00 | 0.00 | 10 | 1022.4 |
| 20260508013636 | 6 | 45 | 0.0 | 0.0 | 0.00 | 0.00 | 0.00 | 10 | 1022.3 |
| 20260508013527 | 6 | 90 | 0.0 | 0.0 | 0.00 | 0.00 | 0.00 | 10 | 1022.3 |
| 20260508012402 | 6 | 45 | 1.6 | 0.0 | 0.00 | 0.00 | 0.00 | 10 | 1022.3 |
| 20260508012253 | 6 | 45 | 1.6 | 0.0 | 0.00 | 0.00 | 0.00 | 10 | 1022.4 |
| 20260508011928 | 6 | 90 | 0.0 | 0.0 | 0.00 | 0.00 | 0.00 | 10 | 1022.4 |
| 20260508010911 | 6 | 90 | 1.6 | 0.0 | 0.00 | 0.00 | 0.00 | 10 | 1022.3 |
| 20260508010545 | 6 | 90 | 1.6 | 0.0 | 0.00 | 0.00 | 0.00 | 10 | 1022.3 |
| 20260508010437 | 6 | 90 | 1.6 | 0.0 | 0.00 | 0.00 | 0.00 | 10 | 1022.2 |
| 20260508010328 | 6 | 45 | 1.6 | 0.0 | 0.00 | 0.00 | 0.00 | 10 | 1022.3 |
| 20260508010220 | 6 | 90 | 1.6 | 0.0 | 0.00 | 0.00 | 0.00 | 10 | 1022.3 |
| 20260508010111 | 6 | 90 | 1.6 | 0.0 | 0.00 | 0.00 | 0.00 | 10 | 1022.3 |
| 20260508005854 | 6 | 45 | 1.6 | 0.0 | 0.00 | 0.00 | 0.00 | 10 | 1022.3 |
| 20260508005745 | 6 | 90 | 1.6 | 0.0 | 0.00 | 0.00 | 0.00 | 10 | 1022.4 |
| 20260508005637 | 6 | 45 | 1.6 | 0.0 | 0.00 | 0.00 | 0.00 | 10 | 1022.4 |
| 20260508005528 | 6 | 90 | 1.6 | 0.0 | 0.00 | 0.00 | 0.00 | 10 | 1022.4 |
| 20260508005202 | 6 | 45 | 0.0 | 0.0 | 0.00 | 0.00 | 0.00 | 10 | 1022.4 |
| 20260508004837 | 6 | 90 | 1.6 | 0.0 | 0.00 | 0.00 | 0.00 | 10 | 1022.4 |
| 20260508004620 | 6 | 45 | 1.6 | 0.0 | 0.00 | 0.00 | 0.00 | 10 | 1022.3 |
| 20260508004403 | 6 | 90 | 1.6 | 0.0 | 0.00 | 0.00 | 0.00 | 10 | 1022.3 |
| 20260508003820 | 6 | 90 | 1.6 | 0.0 | 0.00 | 0.00 | 0.00 | 10 | 1022.3 |
| 20260508003603 | 6 | 45 | 1.6 | 0.0 | 0.00 | 0.00 | 0.00 | 10 | 1022.2 |
| 20260508003455 | 6 | 90 | 1.6 | 0.0 | 0.00 | 0.00 | 0.00 | 10 | 1022.2 |
| 20260508003129 | 6 | 90 | 1.6 | 0.0 | 0.00 | 0.00 | 0.00 | 10 | 1022.2 |
| 20260508003020 | 6 | 45 | 1.6 | 0.0 | 0.00 | 0.00 | 0.00 | 10 | 1022.2 |
| 20260508002546 | 6 | 315 | 1.6 | 0.0 | 0.00 | 0.00 | 0.00 | 10 | 1022.1 |
| 20260508002329 | 6 | 90 | 1.6 | 0.0 | 0.00 | 0.00 | 0.00 | 10 | 1022.1 |
| 20260508002220 | 6 | 45 | 1.6 | 0.0 | 0.00 | 0.00 | 0.00 | 10 | 1022.1 |
| 20260508002112 | 6 | 45 | 3.2 | 0.0 | 0.00 | 0.00 | 0.00 | 10 | 1022.2 |
| 20260508001638 | 6 | 90 | 1.6 | 0.0 | 0.00 | 0.00 | 0.00 | 10 | 1022.1 |
| 20260508001204 | 6 | 0 | 1.6 | 0.0 | 0.00 | 0.00 | 0.00 | 10 | 1022.1 |
| 20260508000405 | 6 | 45 | 1.6 | 0.0 | 0.00 | 0.00 | 0.00 | 10 | 1022.0 |
| 20260508000146 | 6 | 90 | 0.0 | 0.0 | 0.00 | 0.00 | 0.00 | 10 | 1022.0 |
| 20260507235821 | 6 | 45 | 1.6 | 0.0 | 0.00 | 0.00 | 0.00 | 10 | 1022.0 |
| 20260507235346 | 6 | 0 | 1.6 | 0.0 | 0.00 | 0.00 | 0.00 | 10 | 1021.8 |
| 20260507235129 | 6 | 90 | 0.0 | 0.0 | 0.00 | 0.00 | 0.00 | 10 | 1021.8 |
| 20260507234912 | 6 | 45 | 0.0 | 0.0 | 0.00 | 0.00 | 0.00 | 10 | 1021.9 |
| 20260507234804 | 6 | 90 | 1.6 | 0.0 | 0.00 | 0.00 | 0.00 | 10 | 1021.9 |
| 20260507234330 | 6 | 90 | 1.6 | 0.0 | 0.00 | 0.00 | 0.00 | 10 | 1021.9 |
| 20260507234221 | 6 | 90 | 1.6 | 0.0 | 0.00 | 0.00 | 0.00 | 10 | 1021.8 |
| 20260507234112 | 6 | 90 | 1.6 | 0.0 | 0.00 | 0.00 | 0.00 | 10 | 1021.8 |
| 20260507233855 | 6 | 90 | 1.6 | 0.0 | 0.00 | 0.00 | 0.00 | 10 | 1021.9 |
| 20260507233421 | 6 | 90 | 1.6 | 0.0 | 0.00 | 0.00 | 0.00 | 10 | 1021.8 |
| 20260507233313 | 6 | 90 | 1.6 | 0.0 | 0.00 | 0.00 | 0.00 | 10 | 1021.8 |
| 20260507233056 | 6 | 45 | 1.6 | 0.0 | 0.00 | 0.00 | 0.00 | 10 | 1021.7 |
| 20260507232147 | 6 | 90 | 1.6 | 0.0 | 0.00 | 0.00 | 0.00 | 10 | 1021.6 |
| 20260507232039 | 6 | 90 | 1.6 | 0.0 | 0.00 | 0.00 | 0.00 | 10 | 1021.6 |
| 20260507231713 | 6 | 90 | 1.6 | 0.0 | 0.00 | 0.00 | 0.00 | 10 | 1021.5 |
| 20260507231347 | 6 | 90 | 1.6 | 0.0 | 0.00 | 0.00 | 0.00 | 10 | 1021.5 |
| 20260507231239 | 6 | 45 | 1.6 | 0.0 | 0.00 | 0.00 | 0.00 | 10 | 1021.5 |
| 20260507230913 | 6 | 45 | 1.6 | 0.0 | 0.00 | 0.00 | 0.00 | 10 | 1021.5 |
| 20260507230547 | 6 | 0 | 1.6 | 0.0 | 0.00 | 0.00 | 0.00 | 10 | 1021.4 |
| 20260507230222 | 6 | 45 | 1.6 | 0.0 | 0.00 | 0.00 | 0.00 | 10 | 1021.3 |
| 20260507225856 | 6 | 90 | 0.0 | 0.0 | 0.00 | 0.00 | 0.00 | 10 | 1021.3 |
| 20260507225422 | 6 | 0 | 0.0 | 0.0 | 0.00 | 0.00 | 0.00 | 10 | 1021.2 |
| 20260507225313 | 6 | 0 | 0.0 | 0.0 | 0.00 | 0.00 | 0.00 | 10 | 1021.2 |
| 20260507224839 | 6 | 0 | 0.0 | 0.0 | 0.00 | 0.00 | 0.00 | 10 | 1021.1 |
| 20260507223348 | 6 | 45 | 1.6 | 0.0 | 0.00 | 0.00 | 0.00 | 10 | 1021.2 |
| 20260507222223 | 6 | 45 | 1.6 | 0.0 | 0.00 | 0.00 | 0.00 | 10 | 1021.0 |
| 20260507222114 | 6 | 45 | 1.6 | 0.0 | 0.00 | 0.00 | 0.00 | 10 | 1020.9 |
| 20260507221423 | 6 | 90 | 0.0 | 0.0 | 0.00 | 0.00 | 0.00 | 10 | 1020.8 |
| 20260507220949 | 6 | 45 | 0.0 | 0.0 | 0.00 | 0.00 | 0.00 | 10 | 1020.8 |
| 20260507220732 | 6 | 45 | 0.0 | 0.0 | 0.00 | 0.00 | 0.00 | 10 | 1020.9 |
| 20260507220515 | 6 | 0 | 0.0 | 0.0 | 0.00 | 0.00 | 0.00 | 10 | 1020.9 |
| 20260507220258 | 6 | 0 | 0.0 | 0.0 | 0.00 | 0.00 | 0.00 | 10 | 1020.9 |
| 20260507214807 | 6 | 90 | 1.6 | 0.0 | 0.00 | 0.00 | 0.00 | 10 | 1020.6 |
| 20260507214658 | 6 | 45 | 1.6 | 0.0 | 0.00 | 0.00 | 0.00 | 10 | 1020.6 |
| 20260507214550 | 6 | 45 | 0.0 | 0.0 | 0.00 | 0.00 | 0.00 | 10 | 1020.5 |
| 20260507214115 | 6 | 45 | 1.6 | 0.0 | 0.00 | 0.00 | 0.00 | 10 | 1020.4 |
| 20260507214007 | 6 | 0 | 1.6 | 0.0 | 0.00 | 0.00 | 0.00 | 10 | 1020.4 |
| 20260507213750 | 6 | 45 | 1.6 | 0.0 | 0.00 | 0.00 | 0.00 | 10 | 1020.3 |
| 20260507213641 | 6 | 90 | 1.6 | 0.0 | 0.00 | 0.00 | 0.00 | 10 | 1020.3 |
| 20260507213533 | 7 | 45 | 1.6 | 0.0 | 0.00 | 0.00 | 0.00 | 10 | 1020.3 |
| 20260507213424 | 7 | 0 | 1.6 | 0.0 | 0.00 | 0.00 | 0.00 | 10 | 1020.3 |
| 20260507213316 | 7 | 45 | 1.6 | 0.0 | 0.00 | 0.00 | 0.00 | 10 | 1020.2 |
| 20260507213058 | 6 | 45 | 1.6 | 0.0 | 0.00 | 0.00 | 0.00 | 10 | 1020.2 |
| 20260507212950 | 6 | 45 | 1.6 | 0.0 | 0.00 | 0.00 | 0.00 | 10 | 1020.2 |
| 20260507212258 | 6 | 45 | 1.6 | 0.0 | 0.00 | 0.00 | 0.00 | 10 | 1020.1 |
| 20260507211933 | 6 | 45 | 0.0 | 0.0 | 0.00 | 0.00 | 0.00 | 10 | 1020.1 |
| 20260507211716 | 7 | 45 | 0.0 | 0.0 | 0.00 | 0.00 | 0.00 | 10 | 1020.0 |
| 20260507211607 | 7 | 45 | 0.0 | 0.0 | 0.00 | 0.00 | 0.00 | 10 | 1020.0 |
| 20260507211459 | 7 | 45 | 0.0 | 0.0 | 0.00 | 0.00 | 0.00 | 10 | 1020.0 |
| 20260507211242 | 7 | 45 | 1.6 | 0.0 | 0.00 | 0.00 | 0.00 | 10 | 1019.9 |
| 20260507210916 | 7 | 45 | 0.0 | 0.0 | 0.00 | 0.00 | 0.00 | 10 | 1019.9 |
| 20260507210807 | 7 | 45 | 0.0 | 0.0 | 0.00 | 0.00 | 0.00 | 10 | 1019.8 |
| 20260507210334 | 7 | 90 | 1.6 | 0.0 | 0.00 | 0.00 | 0.00 | 10 | 1019.8 |
| 20260507210008 | 7 | 90 | 1.6 | 0.0 | 0.00 | 0.00 | 0.00 | 10 | 1019.7 |
| 20260507205859 | 7 | 90 | 1.6 | 0.0 | 0.00 | 0.00 | 0.00 | 10 | 1019.7 |
| 20260507205751 | 7 | 90 | 1.6 | 0.0 | 0.00 | 0.00 | 0.00 | 10 | 1019.7 |
| 20260507205425 | 7 | 90 | 1.6 | 0.0 | 0.00 | 0.00 | 0.00 | 10 | 1019.7 |
| 20260507205316 | 7 | 90 | 1.6 | 0.0 | 0.00 | 0.00 | 0.00 | 10 | 1019.7 |
| 20260507204951 | 7 | 45 | 1.6 | 0.0 | 0.00 | 0.00 | 0.00 | 10 | 1019.7 |
| 20260507204842 | 7 | 90 | 1.6 | 0.0 | 0.00 | 0.00 | 0.00 | 10 | 1019.6 |
| 20260507204734 | 7 | 90 | 1.6 | 0.0 | 0.00 | 0.00 | 0.00 | 10 | 1019.6 |
| 20260507204043 | 7 | 0 | 1.6 | 0.0 | 0.00 | 0.00 | 0.00 | 10 | 1019.5 |
| 20260507203717 | 7 | 90 | 1.6 | 0.0 | 0.00 | 0.00 | 0.00 | 10 | 1019.4 |
| 20260507203243 | 7 | 45 | 1.6 | 0.0 | 0.00 | 0.00 | 0.00 | 10 | 1019.3 |
| 20260507203025 | 7 | 45 | 1.6 | 0.0 | 0.00 | 0.00 | 0.00 | 10 | 1019.2 |
| 20260507202808 | 7 | 45 | 1.6 | 0.0 | 0.00 | 0.00 | 0.00 | 10 | 1019.2 |
| 20260507202443 | 7 | 315 | 0.0 | 0.0 | 0.00 | 0.00 | 0.00 | 10 | 1019.0 |
| 20260507202009 | 7 | 90 | 1.6 | 0.0 | 0.00 | 0.00 | 0.00 | 10 | 1018.9 |
| 20260507201643 | 7 | 90 | 1.6 | 0.0 | 0.00 | 0.00 | 0.00 | 10 | 1018.8 |
| 20260507201535 | 7 | 45 | 1.6 | 0.0 | 0.00 | 0.00 | 0.00 | 10 | 1018.8 |
| 20260507201317 | 7 | 90 | 1.6 | 0.0 | 0.00 | 0.00 | 0.00 | 10 | 1018.7 |
| 20260507200735 | 7 | 90 | 1.6 | 0.0 | 0.00 | 0.00 | 0.00 | 10 | 1018.6 |
| 20260507200152 | 7 | 45 | 1.6 | 0.0 | 0.00 | 0.00 | 0.00 | 10 | 1018.6 |
| 20260507200043 | 7 | 90 | 1.6 | 0.0 | 0.00 | 0.00 | 0.00 | 10 | 1018.5 |
| 20260507195826 | 7 | 45 | 3.2 | 0.0 | 0.00 | 0.00 | 0.00 | 10 | 1018.5 |
| 20260507195352 | 7 | 45 | 1.6 | 0.0 | 0.00 | 0.00 | 0.00 | 10 | 1018.4 |
| 20260507195135 | 7 | 90 | 1.6 | 0.0 | 0.00 | 0.00 | 0.00 | 10 | 1018.4 |
| 20260507194809 | 7 | 0 | 1.6 | 0.0 | 0.00 | 0.00 | 0.00 | 10 | 1018.3 |
| 20260507194701 | 7 | 90 | 1.6 | 0.0 | 0.00 | 0.00 | 0.00 | 10 | 1018.3 |
| 20260507194009 | 7 | 45 | 1.6 | 0.0 | 0.00 | 0.00 | 0.00 | 10 | 1018.1 |
| 20260507193427 | 7 | 90 | 1.6 | 0.0 | 0.00 | 0.00 | 0.00 | 10 | 1018.0 |
| 20260507192518 | 7 | 90 | 0.0 | 0.0 | 0.00 | 0.00 | 0.00 | 10 | 1017.8 |
| 20260507191610 | 7 | 0 | 0.0 | 0.0 | 0.00 | 0.00 | 0.00 | 10 | 1017.6 |
| 20260507191501 | 7 | 45 | 0.0 | 0.0 | 0.00 | 0.00 | 0.00 | 10 | 1017.6 |
| 20260507190919 | 7 | 0 | 1.6 | 0.0 | 0.00 | 0.00 | 0.00 | 10 | 1017.4 |
| 20260507190701 | 7 | 0 | 1.6 | 0.0 | 0.00 | 0.00 | 0.00 | 10 | 1017.4 |
| 20260507190553 | 7 | 90 | 1.6 | 0.0 | 0.00 | 0.00 | 0.00 | 10 | 1017.4 |
| 20260507190444 | 7 | 45 | 1.6 | 0.0 | 0.00 | 0.00 | 0.00 | 10 | 1017.4 |
| 20260507190336 | 7 | 45 | 1.6 | 0.0 | 0.00 | 0.00 | 0.00 | 10 | 1017.3 |
| 20260507190227 | 7 | 45 | 1.6 | 0.0 | 0.00 | 0.00 | 0.00 | 10 | 1017.2 |
| 20260507190119 | 7 | 45 | 1.6 | 0.0 | 0.00 | 0.00 | 0.00 | 10 | 1017.3 |
| 20260507190010 | 7 | 45 | 1.6 | 0.0 | 0.00 | 0.00 | 0.00 | 10 | 1017.2 |
| 20260507185902 | 7 | 45 | 1.6 | 0.0 | 0.00 | 0.00 | 0.00 | 10 | 1017.2 |
| 20260507185753 | 7 | 45 | 1.6 | 0.0 | 0.00 | 0.00 | 0.00 | 10 | 1017.3 |
| 20260507185536 | 7 | 45 | 1.6 | 0.0 | 0.00 | 0.00 | 0.00 | 10 | 1017.2 |
| 20260507185210 | 7 | 45 | 1.6 | 0.0 | 0.00 | 0.00 | 0.00 | 10 | 1017.2 |
| 20260507185102 | 7 | 90 | 1.6 | 0.0 | 0.00 | 0.00 | 0.00 | 10 | 1017.2 |
| 20260507184953 | 7 | 45 | 1.6 | 0.0 | 0.00 | 0.00 | 0.00 | 10 | 1017.2 |
| 20260507184736 | 7 | 45 | 1.6 | 0.0 | 0.00 | 0.00 | 0.00 | 10 | 1017.1 |
| 20260507184627 | 7 | 45 | 1.6 | 0.0 | 0.00 | 0.00 | 0.00 | 10 | 1017.1 |
| 20260507184410 | 7 | 0 | 1.6 | 0.0 | 0.00 | 0.00 | 0.00 | 10 | 1017.0 |
| 20260507184302 | 7 | 45 | 1.6 | 0.0 | 0.00 | 0.00 | 0.00 | 10 | 1017.1 |
| 20260507184153 | 7 | 45 | 1.6 | 0.0 | 0.00 | 0.00 | 0.00 | 10 | 1017.1 |
| 20260507183936 | 7 | 0 | 1.6 | 0.0 | 0.00 | 0.00 | 0.00 | 10 | 1017.0 |
| 20260507183611 | 7 | 90 | 1.6 | 0.0 | 0.00 | 0.00 | 0.00 | 10 | 1017.0 |
| 20260507183502 | 7 | 0 | 1.6 | 0.0 | 0.00 | 0.00 | 0.00 | 10 | 1017.0 |
| 20260507183353 | 7 | 45 | 1.6 | 0.0 | 0.00 | 0.00 | 0.00 | 10 | 1017.0 |
| 20260507183027 | 7 | 90 | 1.6 | 0.0 | 0.00 | 0.00 | 0.00 | 10 | 1016.9 |
| 20260507182918 | 7 | 45 | 1.6 | 0.0 | 0.00 | 0.00 | 0.00 | 10 | 1016.8 |
| 20260507182701 | 7 | 45 | 1.6 | 0.0 | 0.00 | 0.00 | 0.00 | 10 | 1016.8 |
| 20260507182552 | 7 | 45 | 1.6 | 0.0 | 0.00 | 0.00 | 0.00 | 10 | 1016.9 |
| 20260507182443 | 7 | 45 | 4.8 | 0.0 | 0.00 | 0.00 | 0.00 | 10 | 1016.8 |
| 20260507182335 | 7 | 45 | 1.6 | 0.0 | 0.00 | 0.00 | 0.00 | 10 | 1016.8 |
| 20260507182117 | 7 | 45 | 1.6 | 0.0 | 0.00 | 0.00 | 0.00 | 10 | 1016.7 |
| 20260507181751 | 7 | 90 | 1.6 | 0.0 | 0.00 | 0.00 | 0.00 | 10 | 1016.7 |
| 20260507181425 | 7 | 0 | 1.6 | 0.0 | 0.00 | 0.00 | 0.00 | 10 | 1016.6 |
| 20260507181059 | 7 | 0 | 1.6 | 0.0 | 0.00 | 0.00 | 0.00 | 10 | 1016.6 |
| 20260507180950 | 7 | 45 | 0.0 | 0.0 | 0.00 | 0.00 | 0.00 | 10 | 1016.5 |
| 20260507180005 | 7 | 0 | 1.6 | 0.0 | 0.00 | 0.00 | 0.00 | 10 | 1016.1 |
| 20260507175131 | 7 | 45 | 1.6 | 0.0 | 0.00 | 0.00 | 0.00 | 10 | 1016.2 |
| 20260507174805 | 7 | 0 | 1.6 | 0.0 | 0.00 | 0.00 | 0.00 | 10 | 1016.1 |
| 20260507174707 | 7 | 0 | 1.6 | 0.0 | 0.00 | 0.00 | 0.00 | 10 | 1016.1 |
| 20260507174555 | 7 | 0 | 1.6 | 0.0 | 0.00 | 0.00 | 0.00 | 10 | 1016.1 |
| 20260507174221 | 7 | 0 | 1.6 | 0.0 | 0.00 | 0.00 | 0.00 | 10 | 1016.0 |
| 20260507174004 | 7 | 0 | 1.6 | 0.0 | 0.00 | 0.00 | 0.00 | 10 | 1016.0 |
| 20260507172837 | 7 | 0 | 1.6 | 0.0 | 0.00 | 0.00 | 0.00 | 10 | 1015.7 |
| 20260507172728 | 7 | 0 | 1.6 | 0.0 | 0.00 | 0.00 | 0.00 | 10 | 1015.7 |
| 20260507172402 | 7 | 45 | 1.6 | 0.0 | 0.03 | 0.00 | 0.00 | 10 | 1015.6 |
| 20260507172144 | 7 | 0 | 1.6 | 0.0 | 0.00 | 0.00 | 0.00 | 10 | 1015.6 |
| 20260507171927 | 7 | 45 | 0.0 | 0.0 | 0.00 | 0.00 | 0.00 | 10 | 1015.6 |
| 20260507171601 | 7 | 45 | 1.6 | 0.0 | 0.00 | 0.00 | 0.00 | 10 | 1015.5 |
| 20260507171344 | 7 | 0 | 1.6 | 0.0 | 0.00 | 0.00 | 0.00 | 10 | 1015.6 |
| 20260507171126 | 7 | 0 | 1.6 | 0.0 | 0.00 | 0.00 | 0.00 | 10 | 1015.5 |
| 20260507170800 | 7 | 45 | 1.6 | 0.0 | 0.00 | 0.00 | 0.00 | 10 | 1015.5 |
| 20260507170325 | 7 | 45 | 1.6 | 0.0 | 0.00 | 0.00 | 0.00 | 10 | 1015.5 |
| 20260507165959 | 7 | 315 | 1.6 | 0.0 | 0.00 | 0.00 | 0.00 | 10 | 1015.4 |
| 20260507165850 | 7 | 0 | 1.6 | 0.0 | 0.00 | 0.00 | 0.00 | 10 | 1015.4 |
| 20260507165741 | 7 | 0 | 1.6 | 0.0 | 0.00 | 0.00 | 0.00 | 10 | 1015.4 |
| 20260507165307 | 7 | 0 | 1.6 | 0.0 | 0.00 | 0.00 | 0.00 | 10 | 1015.2 |
| 20260507165158 | 7 | 0 | 1.6 | 0.0 | 0.00 | 0.00 | 0.00 | 10 | 1015.2 |
| 20260507164940 | 7 | 0 | 1.6 | 0.0 | 0.00 | 0.00 | 0.00 | 10 | 1015.2 |
| 20260507164832 | 7 | 0 | 3.2 | 0.0 | 0.00 | 0.00 | 0.00 | 10 | 1015.2 |
| 20260507164614 | 7 | 0 | 1.6 | 0.0 | 0.00 | 0.00 | 0.00 | 10 | 1015.2 |
| 20260507164139 | 7 | 0 | 1.6 | 0.0 | 0.00 | 0.00 | 0.00 | 10 | 1015.2 |
| 20260507164030 | 7 | 45 | 0.0 | 0.0 | 0.00 | 0.00 | 0.00 | 10 | 1015.1 |
| 20260507163922 | 7 | 0 | 0.0 | 0.0 | 0.00 | 0.00 | 0.00 | 10 | 1015.1 |
| 20260507163704 | 7 | 0 | 1.6 | 0.0 | 0.00 | 0.00 | 0.00 | 10 | 1015.2 |
| 20260507163556 | 7 | 0 | 1.6 | 0.0 | 0.00 | 0.00 | 0.00 | 10 | 1015.2 |
| 20260507163230 | 7 | 0 | 1.6 | 0.0 | 0.00 | 0.00 | 0.00 | 10 | 1015.1 |
| 20260507163121 | 7 | 45 | 1.6 | 0.0 | 0.00 | 0.00 | 0.00 | 10 | 1015.1 |
| 20260507162646 | 7 | 0 | 1.6 | 0.0 | 0.00 | 0.00 | 0.00 | 10 | 1015.1 |
| 20260507162211 | 7 | 0 | 1.6 | 0.0 | 0.00 | 0.00 | 0.00 | 10 | 1015.0 |
| 20260507161954 | 7 | 0 | 1.6 | 0.0 | 0.00 | 0.00 | 0.00 | 10 | 1015.0 |
| 20260507161845 | 7 | 0 | 1.6 | 0.0 | 0.00 | 0.00 | 0.00 | 10 | 1015.0 |
| 20260507161737 | 7 | 0 | 1.6 | 0.0 | 0.00 | 0.00 | 0.00 | 10 | 1015.0 |
| 20260507161519 | 7 | 0 | 1.6 | 0.0 | 0.03 | 0.00 | 0.00 | 10 | 1015.0 |
| 20260507161410 | 7 | 0 | 3.2 | 0.0 | 0.03 | 0.00 | 0.00 | 10 | 1015.0 |
| 20260507160935 | 7 | 0 | 1.6 | 0.0 | 0.03 | 0.00 | 0.00 | 10 | 1015.0 |
| 20260507160826 | 7 | 0 | 1.6 | 0.0 | 0.03 | 0.00 | 0.00 | 10 | 1015.0 |
| 20260507160718 | 7 | 0 | 3.2 | 0.0 | 0.03 | 0.00 | 0.00 | 10 | 1015.0 |
| 20260507160609 | 7 | 0 | 1.6 | 0.0 | 0.03 | 0.00 | 0.00 | 10 | 1015.0 |
| 20260507160136 | 7 | 90 | 1.6 | 0.0 | 0.03 | 0.00 | 0.00 | 10 | 1014.9 |
| 20260507155808 | 7 | 90 | 1.6 | 0.0 | 0.03 | 0.00 | 0.00 | 10 | 1014.8 |
| 20260507155550 | 7 | 0 | 1.6 | 0.0 | 0.03 | 0.00 | 0.00 | 10 | 1014.8 |
| 20260507155442 | 7 | 0 | 1.6 | 0.0 | 0.03 | 0.00 | 0.00 | 10 | 1014.8 |
| 20260507155333 | 7 | 315 | 1.6 | 0.0 | 0.03 | 0.00 | 0.00 | 10 | 1014.8 |
| 20260507155224 | 7 | 315 | 1.6 | 0.0 | 0.03 | 0.00 | 0.00 | 10 | 1014.8 |
| 20260507155007 | 7 | 45 | 1.6 | 0.0 | 0.03 | 0.00 | 0.00 | 10 | 1014.8 |
| 20260507154858 | 7 | 0 | 1.6 | 0.0 | 0.03 | 0.00 | 0.00 | 10 | 1014.8 |
| 20260507154423 | 7 | 315 | 1.6 | 0.0 | 0.03 | 0.00 | 0.00 | 10 | 1014.7 |
| 20260507154314 | 7 | 0 | 1.6 | 0.0 | 0.03 | 0.00 | 0.00 | 10 | 1014.7 |
| 20260507154206 | 7 | 315 | 1.6 | 0.0 | 0.00 | 0.00 | 0.00 | 10 | 1014.7 |
| 20260507153948 | 7 | 0 | 1.6 | 0.0 | 0.00 | 0.00 | 0.00 | 10 | 1014.7 |
| 20260507153839 | 7 | 0 | 1.6 | 0.0 | 0.00 | 0.00 | 0.00 | 10 | 1014.7 |
| 20260507153731 | 7 | 0 | 1.6 | 0.0 | 0.00 | 0.00 | 0.00 | 10 | 1014.7 |
| 20260507153622 | 7 | 315 | 1.6 | 0.0 | 0.00 | 0.00 | 0.00 | 10 | 1014.7 |
| 20260507153256 | 7 | 315 | 1.6 | 0.0 | 0.00 | 0.00 | 0.00 | 10 | 1014.6 |
| 20260507153147 | 7 | 315 | 3.2 | 0.0 | 0.00 | 0.00 | 0.00 | 10 | 1014.6 |
| 20260507152930 | 7 | 315 | 1.6 | 0.0 | 0.00 | 0.00 | 0.00 | 10 | 1014.7 |
| 20260507152712 | 7 | 0 | 1.6 | 0.0 | 0.00 | 0.00 | 0.00 | 10 | 1014.7 |
| 20260507152603 | 7 | 0 | 1.6 | 0.0 | 0.00 | 0.00 | 0.00 | 10 | 1014.7 |
| 20260507152346 | 7 | 0 | 1.6 | 0.0 | 0.00 | 0.00 | 0.00 | 10 | 1014.7 |
| 20260507152237 | 7 | 0 | 3.2 | 0.0 | 0.00 | 0.00 | 0.00 | 10 | 1014.7 |
| 20260507152128 | 7 | 0 | 1.6 | 0.0 | 0.00 | 0.00 | 0.00 | 10 | 1014.7 |
| 20260507151911 | 7 | 0 | 3.2 | 0.0 | 0.00 | 0.00 | 0.00 | 10 | 1014.7 |
| 20260507151802 | 7 | 0 | 1.6 | 0.0 | 0.00 | 0.00 | 0.00 | 10 | 1014.7 |
| 20260507151654 | 7 | 0 | 1.6 | 0.0 | 0.00 | 0.00 | 0.00 | 10 | 1014.6 |
| 20260507151436 | 7 | 0 | 1.6 | 0.0 | 0.00 | 0.00 | 0.00 | 10 | 1014.6 |
| 20260507151327 | 7 | 0 | 0.0 | 0.0 | 0.00 | 0.00 | 0.00 | 10 | 1014.6 |
| 20260507151110 | 7 | 0 | 1.6 | 0.0 | 0.00 | 0.00 | 0.00 | 10 | 1014.6 |
| 20260507150852 | 8 | 0 | 0.0 | 0.0 | 0.00 | 0.00 | 0.00 | 10 | 1014.6 |
| 20260507150635 | 7 | 45 | 1.6 | 0.0 | 0.05 | 0.00 | 0.00 | 10 | 1014.5 |
| 20260507150417 | 7 | 45 | 1.6 | 0.0 | 0.05 | 0.00 | 0.00 | 10 | 1014.5 |
| 20260507150200 | 7 | 0 | 1.6 | 0.0 | 0.05 | 0.00 | 0.00 | 10 | 1014.6 |
| 20260507150051 | 7 | 0 | 1.6 | 0.0 | 0.05 | 0.00 | 0.00 | 10 | 1014.5 |
| 20260507145943 | 7 | 45 | 1.6 | 0.0 | 0.05 | 0.00 | 0.00 | 10 | 1014.5 |
| 20260507145725 | 7 | 45 | 1.6 | 0.0 | 0.03 | 0.00 | 0.00 | 10 | 1014.5 |
| 20260507145359 | 7 | 45 | 1.6 | 0.0 | 0.03 | 0.00 | 0.00 | 10 | 1014.5 |
| 20260507145033 | 7 | 0 | 3.2 | 0.0 | 0.03 | 0.00 | 0.00 | 10 | 1014.5 |
| 20260507144924 | 7 | 0 | 1.6 | 0.0 | 0.03 | 0.00 | 0.00 | 10 | 1014.5 |
| 20260507144815 | 7 | 45 | 1.6 | 0.0 | 0.03 | 0.00 | 0.00 | 10 | 1014.5 |
| 20260507144558 | 7 | 45 | 1.6 | 0.0 | 0.03 | 0.00 | 0.00 | 10 | 1014.4 |
| 20260507144123 | 7 | 0 | 1.6 | 0.0 | 0.03 | 0.00 | 0.00 | 10 | 1014.4 |
| 20260507144014 | 7 | 0 | 1.6 | 0.0 | 0.03 | 0.00 | 0.00 | 10 | 1014.4 |
| 20260507143906 | 7 | 0 | 1.6 | 0.0 | 0.03 | 0.00 | 0.00 | 10 | 1014.4 |
| 20260507143757 | 7 | 0 | 1.6 | 0.0 | 0.03 | 0.00 | 0.00 | 10 | 1014.4 |
| 20260507143648 | 7 | 0 | 1.6 | 0.0 | 0.03 | 0.00 | 0.00 | 10 | 1014.4 |
| 20260507143431 | 7 | 0 | 1.6 | 0.0 | 0.03 | 0.00 | 0.00 | 10 | 1014.4 |
| 20260507142847 | 7 | 45 | 1.6 | 0.0 | 0.03 | 0.00 | 0.00 | 10 | 1014.4 |
| 20260507142306 | 7 | 45 | 1.6 | 0.0 | 0.03 | 0.00 | 0.00 | 10 | 1014.4 |
| 20260507142046 | 7 | 45 | 1.6 | 0.0 | 0.03 | 0.00 | 0.00 | 10 | 1014.4 |
| 20260507141720 | 7 | 0 | 1.6 | 0.0 | 0.03 | 0.00 | 0.00 | 10 | 1014.4 |
| 20260507141354 | 7 | 0 | 1.6 | 0.0 | 0.03 | 0.00 | 0.00 | 10 | 1014.5 |
| 20260507141136 | 7 | 45 | 1.6 | 0.0 | 0.03 | 0.00 | 0.00 | 10 | 1014.4 |
| 20260507141028 | 7 | 0 | 3.2 | 0.0 | 0.03 | 0.00 | 0.00 | 10 | 1014.4 |
| 20260507140919 | 7 | 0 | 1.6 | 0.0 | 0.03 | 0.00 | 0.00 | 10 | 1014.4 |
| 20260507140810 | 7 | 90 | 3.2 | 0.0 | 0.00 | 0.00 | 0.00 | 10 | 1014.4 |
| 20260507140553 | 7 | 0 | 1.6 | 0.0 | 0.00 | 0.00 | 0.00 | 10 | 1014.4 |
| 20260507140444 | 7 | 45 | 1.6 | 0.0 | 0.00 | 0.00 | 0.00 | 10 | 1014.4 |
| 20260507140335 | 7 | 45 | 1.6 | 0.0 | 0.00 | 0.00 | 0.00 | 10 | 1014.4 |
| 20260507140118 | 7 | 45 | 1.6 | 0.0 | 0.00 | 0.00 | 0.00 | 10 | 1014.4 |
| 20260507135901 | 7 | 45 | 1.6 | 0.0 | 0.00 | 0.00 | 0.00 | 10 | 1014.4 |
| 20260507135534 | 7 | 45 | 1.6 | 0.0 | 0.05 | 0.00 | 0.00 | 10 | 1014.3 |
| 20260507135426 | 7 | 45 | 3.2 | 0.0 | 0.05 | 0.00 | 0.00 | 10 | 1014.3 |
| 20260507135317 | 7 | 0 | 1.6 | 0.0 | 0.05 | 0.00 | 0.00 | 10 | 1014.3 |
| 20260507134951 | 7 | 45 | 1.6 | 0.0 | 0.05 | 0.00 | 0.00 | 10 | 1014.3 |
| 20260507134842 | 7 | 0 | 1.6 | 0.0 | 0.05 | 0.00 | 0.00 | 10 | 1014.3 |
| 20260507134734 | 7 | 0 | 1.6 | 0.0 | 0.05 | 0.00 | 0.00 | 10 | 1014.3 |
| 20260507134516 | 7 | 0 | 1.6 | 0.0 | 0.05 | 0.00 | 0.00 | 10 | 1014.3 |
| 20260507134408 | 7 | 45 | 1.6 | 0.0 | 0.05 | 0.00 | 0.00 | 10 | 1014.3 |
| 20260507134259 | 7 | 45 | 1.6 | 0.0 | 0.03 | 0.00 | 0.00 | 10 | 1014.3 |
| 20260507134150 | 7 | 0 | 1.6 | 0.0 | 0.03 | 0.00 | 0.00 | 10 | 1014.3 |
| 20260507133824 | 7 | 45 | 1.6 | 0.0 | 0.03 | 0.00 | 0.00 | 10 | 1014.2 |
| 20260507133715 | 7 | 0 | 3.2 | 0.0 | 0.03 | 0.00 | 0.00 | 10 | 1014.3 |
| 20260507133606 | 7 | 0 | 1.6 | 0.0 | 0.03 | 0.00 | 0.00 | 10 | 1014.2 |
| 20260507133457 | 7 | 45 | 1.6 | 0.0 | 0.03 | 0.00 | 0.00 | 10 | 1014.2 |
| 20260507132805 | 7 | 45 | 1.6 | 0.0 | 0.03 | 0.00 | 0.00 | 10 | 1014.1 |
| 20260507132548 | 7 | 315 | 1.6 | 0.0 | 0.03 | 0.00 | 0.00 | 10 | 1014.1 |
| 20260507132439 | 7 | 45 | 1.6 | 0.0 | 0.03 | 0.00 | 0.00 | 10 | 1014.1 |
| 20260507132330 | 7 | 45 | 3.2 | 0.0 | 0.03 | 0.00 | 0.00 | 10 | 1014.1 |
| 20260507132221 | 7 | 45 | 1.6 | 0.0 | 0.03 | 0.00 | 0.00 | 10 | 1014.1 |
| 20260507131855 | 7 | 45 | 1.6 | 0.0 | 0.03 | 0.00 | 0.00 | 10 | 1014.0 |
| 20260507131747 | 7 | 45 | 1.6 | 0.0 | 0.03 | 0.00 | 0.00 | 10 | 1014.0 |
| 20260507131639 | 7 | 45 | 1.6 | 0.0 | 0.00 | 0.00 | 0.00 | 10 | 1014.0 |
| 20260507131529 | 7 | 45 | 3.2 | 0.0 | 0.00 | 0.00 | 0.00 | 10 | 1014.0 |
| 20260507131312 | 7 | 45 | 1.6 | 0.0 | 0.00 | 0.00 | 0.00 | 10 | 1014.0 |
| 20260507131203 | 7 | 45 | 1.6 | 0.0 | 0.00 | 0.00 | 0.00 | 10 | 1014.0 |
| 20260507130946 | 7 | 45 | 1.6 | 0.0 | 0.00 | 0.00 | 0.00 | 10 | 1013.9 |
| 20260507130837 | 7 | 45 | 1.6 | 0.0 | 0.00 | 0.00 | 0.00 | 10 | 1013.9 |
| 20260507130728 | 7 | 0 | 1.6 | 0.0 | 0.00 | 0.00 | 0.00 | 10 | 1013.9 |
| 20260507130620 | 7 | 0 | 1.6 | 0.0 | 0.00 | 0.00 | 0.00 | 10 | 1013.9 |
| 20260507130511 | 7 | 45 | 1.6 | 0.0 | 0.00 | 0.00 | 0.00 | 10 | 1013.8 |
| 20260507130402 | 7 | 90 | 1.6 | 0.0 | 0.00 | 0.00 | 0.00 | 10 | 1013.8 |
| 20260507130253 | 7 | 45 | 1.6 | 0.0 | 0.00 | 0.00 | 0.00 | 10 | 1013.9 |
| 20260507130145 | 7 | 45 | 1.6 | 0.0 | 0.00 | 0.00 | 0.00 | 10 | 1013.9 |
| 20260507130036 | 7 | 45 | 3.2 | 0.0 | 0.00 | 0.00 | 0.00 | 10 | 1013.9 |
| 20260507125928 | 7 | 0 | 1.6 | 0.0 | 0.00 | 0.00 | 0.00 | 10 | 1013.9 |
| 20260507125819 | 7 | 45 | 3.2 | 0.0 | 0.00 | 0.00 | 0.00 | 10 | 1013.9 |
| 20260507125710 | 7 | 45 | 1.6 | 0.0 | 0.00 | 0.00 | 0.00 | 10 | 1013.9 |
| 20260507125601 | 7 | 45 | 1.6 | 0.0 | 0.00 | 0.00 | 0.00 | 10 | 1013.8 |
| 20260507125453 | 7 | 45 | 3.2 | 0.0 | 0.00 | 0.00 | 0.00 | 10 | 1013.8 |
| 20260507125344 | 7 | 45 | 1.6 | 0.0 | 0.00 | 0.00 | 0.00 | 10 | 1013.8 |
| 20260507125235 | 7 | 45 | 1.6 | 0.0 | 0.00 | 0.00 | 0.00 | 10 | 1013.8 |
| 20260507125018 | 7 | 315 | 1.6 | 0.0 | 0.00 | 0.00 | 0.00 | 10 | 1013.7 |
| 20260507124651 | 7 | 45 | 1.6 | 0.0 | 0.05 | 0.00 | 0.00 | 10 | 1013.7 |
| 20260507124542 | 7 | 0 | 1.6 | 0.0 | 0.05 | 0.00 | 0.00 | 10 | 1013.7 |
| 20260507124434 | 7 | 45 | 3.2 | 0.0 | 0.05 | 0.00 | 0.00 | 10 | 1013.7 |
| 20260507124325 | 7 | 0 | 3.2 | 0.0 | 0.05 | 0.00 | 0.00 | 10 | 1013.8 |
| 20260507124216 | 7 | 45 | 1.6 | 0.0 | 0.05 | 0.00 | 0.00 | 10 | 1013.7 |
| 20260507124107 | 7 | 0 | 1.6 | 0.0 | 0.05 | 0.00 | 0.00 | 10 | 1013.7 |
| 20260507123959 | 7 | 45 | 3.2 | 0.0 | 0.05 | 0.00 | 0.00 | 10 | 1013.6 |
| 20260507123850 | 7 | 45 | 1.6 | 0.0 | 0.05 | 0.00 | 0.00 | 10 | 1013.6 |
| 20260507123741 | 7 | 0 | 3.2 | 0.0 | 0.05 | 0.00 | 0.00 | 10 | 1013.7 |
| 20260507123633 | 7 | 0 | 4.8 | 0.0 | 0.05 | 0.00 | 0.00 | 10 | 1013.7 |
| 20260507123524 | 7 | 45 | 1.6 | 0.0 | 0.05 | 0.00 | 0.00 | 10 | 1013.6 |
| 20260507123415 | 7 | 0 | 1.6 | 0.0 | 0.03 | 0.00 | 0.00 | 10 | 1013.6 |
| 20260507123307 | 7 | 45 | 1.6 | 0.0 | 0.03 | 0.00 | 0.00 | 10 | |
| 20260507123158 | 7 | 0 | 1.6 | 0.0 | 0.03 | 0.00 | 0.00 | 10 | 1013.5 |
| 20260507123049 | 7 | 0 | 1.6 | 0.0 | 0.03 | 0.00 | 0.00 | 10 | 1013.5 |
| 20260507122940 | 7 | 45 | 1.6 | 0.0 | 0.03 | 0.00 | 0.00 | 10 | 1013.5 |
| 20260507122834 | 7 | 0 | 1.6 | 0.0 | 0.03 | 0.00 | 0.00 | 10 | 1013.5 |
| 20260507122723 | 7 | 0 | 1.6 | 0.0 | 0.03 | 0.00 | 0.00 | 10 | 1013.5 |
| 20260507122614 | 7 | 45 | 1.6 | 0.0 | 0.03 | 0.00 | 0.00 | 10 | 1013.5 |
| 20260507122505 | 7 | 45 | 3.2 | 0.0 | 0.03 | 0.00 | 0.00 | 10 | 1013.4 |
| 20260507122357 | 7 | 45 | 1.6 | 0.0 | 0.03 | 0.00 | 0.00 | 10 | 1013.4 |
| 20260507122248 | 7 | 45 | 1.6 | 0.0 | 0.03 | 0.00 | 0.00 | 10 | 1013.4 |
| 20260507122030 | 7 | 45 | 1.6 | 0.0 | 0.03 | 0.00 | 0.00 | 10 | 1013.3 |
| 20260507121813 | 7 | 90 | 1.6 | 0.0 | 0.03 | 0.00 | 0.00 | 10 | 1013.3 |
| 20260507121704 | 7 | 45 | 4.8 | 0.0 | 0.03 | 0.00 | 0.00 | 10 | 1013.3 |
| 20260507121447 | 7 | 0 | 3.2 | 0.0 | 0.03 | 0.00 | 0.00 | 10 | 1013.2 |
| 20260507121229 | 7 | 90 | 1.6 | 0.0 | 0.03 | 0.00 | 0.00 | 10 | 1013.3 |
| 20260507121012 | 7 | 90 | 1.6 | 0.0 | 0.03 | 0.00 | 0.00 | 10 | 1013.2 |
| 20260507120754 | 7 | 315 | 1.6 | 0.0 | 0.03 | 0.00 | 0.00 | 10 | 1013.2 |
| 20260507120646 | 7 | 0 | 1.6 | 0.0 | 0.03 | 0.00 | 0.00 | 10 | 1013.2 |
| 20260507120537 | 7 | 0 | 1.6 | 0.0 | 0.03 | 0.00 | 0.00 | 10 | 1013.2 |
| 20260507120428 | 7 | 90 | 3.2 | 0.0 | 0.03 | 0.00 | 0.00 | 10 | 1013.2 |
| 20260507120320 | 7 | 45 | 3.2 | 0.0 | 0.03 | 0.00 | 0.00 | 10 | 1013.2 |
| 20260507120211 | 7 | 45 | 1.6 | 0.0 | 0.03 | 0.00 | 0.00 | 10 | 1013.2 |
| 20260507115953 | 7 | 90 | 1.6 | 0.0 | 0.00 | 0.00 | 0.00 | 10 | 1013.1 |
| 20260507115845 | 7 | 45 | 3.2 | 0.0 | 0.00 | 0.00 | 0.00 | 10 | 1013.2 |
| 20260507115736 | 7 | 0 | 1.6 | 0.0 | 0.00 | 0.00 | 0.00 | 10 | 1013.1 |
| 20260507115627 | 7 | 45 | 1.6 | 0.0 | 0.00 | 0.00 | 0.00 | 10 | 1013.2 |
| 20260507115519 | 7 | 0 | 3.2 | 0.0 | 0.00 | 0.00 | 0.00 | 10 | 1013.1 |
| 20260507115410 | 7 | 0 | 3.2 | 0.0 | 0.00 | 0.00 | 0.00 | 10 | 1013.1 |
| 20260507115301 | 7 | 45 | 1.6 | 0.0 | 0.00 | 0.00 | 0.00 | 10 | 1013.1 |
| 20260507115152 | 7 | 45 | 1.6 | 0.0 | 0.00 | 0.00 | 0.00 | 10 | 1013.0 |
| 20260507115044 | 7 | 0 | 1.6 | 0.0 | 0.00 | 0.00 | 0.00 | 10 | 1013.0 |
| 20260507114826 | 7 | 45 | 1.6 | 0.0 | 0.00 | 0.00 | 0.00 | 10 | 1012.9 |
| 20260507114718 | 7 | 90 | 1.6 | 0.0 | 0.00 | 0.00 | 0.00 | 10 | 1012.9 |
| 20260507114609 | 7 | 0 | 1.6 | 0.0 | 0.00 | 0.00 | 0.00 | 10 | 1012.8 |
| 20260507114351 | 7 | 90 | 3.2 | 0.0 | 0.00 | 0.00 | 0.00 | 10 | 1012.7 |
| 20260507114243 | 7 | 45 | 1.6 | 0.0 | 0.00 | 0.00 | 0.00 | 10 | 1012.6 |
| 20260507114134 | 7 | 0 | 3.2 | 0.0 | 0.00 | 0.00 | 0.00 | 10 | 1012.5 |
| 20260507114025 | 7 | 0 | 3.2 | 0.0 | 0.00 | 0.00 | 0.00 | 10 | 1013.2 |
| 20260507113808 | 7 | 45 | 1.6 | 0.0 | 0.00 | 0.00 | 0.00 | 10 | 1013.2 |
| 20260507113550 | 7 | 0 | 3.2 | 0.0 | 0.05 | 0.00 | 0.00 | 10 | 1013.1 |
| 20260507113442 | 7 | 0 | 4.8 | 0.0 | 0.05 | 0.00 | 0.00 | 10 | 1013.1 |
| 20260507113333 | 7 | 45 | 3.2 | 0.0 | 0.05 | 0.00 | 0.00 | 10 | 1013.1 |
| 20260507113224 | 7 | 45 | 3.2 | 0.0 | 0.05 | 0.00 | 0.00 | 10 | 1013.1 |
| 20260507113115 | 7 | 45 | 1.6 | 0.0 | 0.05 | 0.00 | 0.00 | 10 | 1013.1 |
| 20260507113006 | 7 | 45 | 1.6 | 0.0 | 0.05 | 0.00 | 0.00 | 10 | 1013.1 |
| 20260507112858 | 7 | 45 | 1.6 | 0.0 | 0.05 | 0.00 | 0.00 | 10 | 1013.1 |
| 20260507112749 | 7 | 45 | 3.2 | 0.0 | 0.05 | 0.00 | 0.00 | 10 | 1013.1 |
| 20260507112640 | 7 | 45 | 1.6 | 0.0 | 0.05 | 0.00 | 0.00 | 10 | 1013.1 |
| 20260507112531 | 7 | 0 | 3.2 | 0.0 | 0.05 | 0.00 | 0.00 | 10 | 1013.2 |
| 20260507112423 | 7 | 45 | 3.2 | 0.0 | 0.05 | 0.00 | 0.00 | 10 | 1013.2 |
| 20260507112314 | 7 | 45 | 4.8 | 0.0 | 0.05 | 0.00 | 0.00 | 10 | 1013.2 |
| 20260507112205 | 7 | 45 | 1.6 | 0.0 | 0.05 | 0.00 | 0.00 | 10 | 1013.2 |
| 20260507111948 | 7 | 45 | 4.8 | 0.0 | 0.05 | 0.00 | 0.00 | 10 | 1013.2 |
| 20260507111839 | 7 | 45 | 4.8 | 0.0 | 0.05 | 0.00 | 0.00 | 10 | 1013.1 |
| 20260507111730 | 7 | 45 | 3.2 | 0.0 | 0.05 | 0.00 | 0.00 | 10 | 1013.2 |
| 20260507111622 | 7 | 90 | 3.2 | 0.0 | 0.05 | 0.00 | 0.00 | 10 | 1013.1 |
| 20260507111513 | 7 | 45 | 1.6 | 0.0 | 0.05 | 0.00 | 0.00 | 10 | 1013.1 |
| 20260507111404 | 7 | 45 | 1.6 | 0.0 | 0.05 | 0.00 | 0.00 | 10 | 1013.1 |
| 20260507111255 | 7 | 0 | 1.6 | 0.0 | 0.05 | 0.00 | 0.00 | 10 | 1013.1 |
| 20260507111147 | 7 | 45 | 1.6 | 0.0 | 0.05 | 0.00 | 0.00 | 10 | 1013.1 |
| 20260507111038 | 7 | 0 | 1.6 | 0.0 | 0.05 | 0.00 | 0.00 | 10 | 1013.1 |
| 20260507110821 | 7 | 45 | 3.2 | 0.0 | 0.03 | 0.00 | 0.00 | 10 | 1013.0 |
| 20260507110712 | 7 | 45 | 1.6 | 0.0 | 0.03 | 0.00 | 0.00 | 10 | 1013.0 |
| 20260507110454 | 7 | 135 | 4.8 | 0.0 | 0.03 | 0.00 | 0.00 | 10 | 1013.0 |
| 20260507110346 | 7 | 45 | 3.2 | 0.0 | 0.03 | 0.00 | 0.00 | 10 | 1013.0 |
| 20260507110237 | 7 | 45 | 1.6 | 0.0 | 0.03 | 0.00 | 0.00 | 10 | 1012.9 |
| 20260507110128 | 7 | 45 | 1.6 | 0.0 | 0.03 | 0.00 | 0.00 | 10 | 1013.0 |
| 20260507110019 | 7 | 45 | 3.2 | 0.0 | 0.03 | 0.00 | 0.00 | 10 | 1013.0 |
| 20260507105911 | 7 | 45 | 1.6 | 0.0 | 0.03 | 0.00 | 0.00 | 10 | 1012.9 |
| 20260507105802 | 7 | 45 | 3.2 | 0.0 | 0.03 | 0.00 | 0.00 | 10 | 1012.9 |
| 20260507105653 | 7 | 45 | 3.2 | 0.0 | 0.03 | 0.00 | 0.00 | 10 | 1012.9 |
| 20260507105544 | 7 | 45 | 4.8 | 0.0 | 0.03 | 0.00 | 0.00 | 10 | 1012.9 |
| 20260507105436 | 7 | 45 | 4.8 | 0.0 | 0.03 | 0.00 | 0.00 | 10 | 1012.9 |
| 20260507105327 | 7 | 0 | 3.2 | 0.0 | 0.00 | 0.00 | 0.00 | 10 | 1012.9 |
| 20260507105218 | 7 | 45 | 3.2 | 0.0 | 0.00 | 0.00 | 0.00 | 10 | 1012.9 |
| 20260507105109 | 7 | 45 | 4.8 | 0.0 | 0.00 | 0.00 | 0.00 | 10 | 1012.8 |
| 20260507105001 | 7 | 45 | 1.6 | 0.0 | 0.00 | 0.00 | 0.00 | 10 | 1012.9 |
| 20260507104852 | 7 | 0 | 3.2 | 0.0 | 0.00 | 0.00 | 0.00 | 10 | 1012.8 |
| 20260507104743 | 7 | 45 | 1.6 | 0.0 | 0.00 | 0.00 | 0.00 | 10 | 1012.9 |
| 20260507104635 | 7 | 45 | 1.6 | 0.0 | 0.00 | 0.00 | 0.00 | 10 | 1012.8 |
| 20260507104526 | 7 | 45 | 3.2 | 0.0 | 0.00 | 0.00 | 0.00 | 10 | 1012.8 |
| 20260507104418 | 7 | 0 | 1.6 | 0.0 | 0.00 | 0.00 | 0.00 | 10 | 1012.8 |
| 20260507104308 | 7 | 0 | 3.2 | 0.0 | 0.00 | 0.00 | 0.00 | 10 | 1012.8 |
| 20260507104051 | 7 | 45 | 1.6 | 0.0 | 0.00 | 0.00 | 0.00 | 10 | 1012.8 |
| 20260507103942 | 7 | 45 | 3.2 | 0.0 | 0.00 | 0.00 | 0.00 | 10 | 1012.8 |
| 20260507103724 | 7 | 45 | 1.6 | 0.0 | 0.00 | 0.00 | 0.00 | 10 | 1012.7 |
| 20260507103616 | 7 | 45 | 3.2 | 0.0 | 0.00 | 0.00 | 0.00 | 10 | 1012.7 |
| 20260507103359 | 7 | 0 | 3.2 | 0.0 | 0.00 | 0.00 | 0.00 | 10 | 1012.7 |
| 20260507103250 | 7 | 45 | 1.6 | 0.0 | 0.00 | 0.00 | 0.00 | 10 | 1012.7 |
| 20260507103141 | 7 | 90 | 1.6 | 0.0 | 0.00 | 0.00 | 0.00 | 10 | 1012.6 |
| 20260507103032 | 7 | 45 | 3.2 | 0.0 | 0.00 | 0.00 | 0.00 | 10 | 1012.6 |